Location: T�bingen+AIT
(48.5342°N, 9.0700°E)
Time: 20:26:39
(UTC+02:00)

USA 229 DEB - Pass Details

Date: 14 September 2017
Orbit: 1048 x 1165 km, 63.4° (Epoch: 19 September)

Event Time Altitude Azimuth Distance (km) Brightness Sun altitude
Rises 20:01:53 0° 316° (NW) 3,916 7.7 -4.7°
Reaches altitude 10° 20:04:40 10° 322° (NW) 2,974 6.8 -5.1°
Maximum altitude 20:11:28 46° 35° (NE) 1,478 4.3 -6.2°
Drops below altitude 10° 20:18:25 10° 108° (ESE) 3,041 5.4 -7.4°
Enters shadow 20:18:49 - 109° (ESE) 3,176 5.5 -7.4°
